Regional Weather Roundup
Issued by NWS

Home | Current Version | Previous Version | Graphics & Text | Print | Product List | Glossary On
Versions: 1 2 3 4 5 6 7 8 9 10 11 12 13 14 15 16 17 18 19 20 21 22 23 24 25 26 27 28 29 30 31 32 33 34 35 36 37 38 39 40 41 42 43 44 45 46 47 48 49 50
000
ASUS45 KBOU 190707
RWRCO

WEATHER ROUNDUP FOR COLORADO
NATIONAL WEATHER SERVICE DENVER/BOULDER CO
100 AM MDT SUN APR 19 2015

NOTE: "FAIR" INDICATES FEW OR NO CLOUDS BELOW 12000 FEET WITH NO
SIGNIFICANT WEATHER AND/OR OBSTRUCTIONS TO VISIBILITY.

COZ001>005-013-030-031-190800-
...NORTHWEST COLORADO...

CITY           SKY/WX    TMP DP  RH WIND       PRES   REMARKS
CRAIG          CLOUDY    37  32  82 SW6       30.11R
HAYDEN         CLOUDY    34  30  86 SW3       30.09S
MEEKER         CLOUDY    33  31  92 SW3       30.10R
MOUNT WERNER   NOT AVBL
STEAMBOAT SPGS MOCLDY    32  31  98 CALM      30.09R
WALDEN         CLOUDY    32  30  93 NW10      30.08R WCI  24
$$

COZ006>008-011-190800-
...WEST CENTRAL VALLEYS...

CITY           SKY/WX    TMP DP  RH WIND       PRES   REMARKS
GRAND JUNCTION CLEAR     35  35 100 CALM      30.08R
MONTROSE       FOG       37  36  96 SE6       30.11R VSB 1/2
EAGLE          CLOUDY    36  36 100 CALM      30.11R
RIFLE          CLOUDY    35  32  88 S6        30.11R WCI  30
DELTA          PTCLDY    38  37  97 S5        30.10R
NUCLA          PTCLDY    37  36  93 E5        30.11S
$$

COZ017>023-064>068-190800-
...SOUTHWEST COLORADO...

CITY           SKY/WX    TMP DP  RH WIND       PRES   REMARKS
DURANGO        PTCLDY    40  26  57 W13       29.99R
CORTEZ         PTCLDY    44  35  70 NE7       30.04F
PAGOSA SPRINGS CLOUDY    33  25  72 CALM      30.02R
TELLURIDE      PTCLDY    32  28  84 W9G21     30.11S WCI  25
WOLF CREEK PAS CLOUDY    21  18  86 NE24G31   30.10S WCI   4
$$

COZ009-010-012-014-032>034-037-058>063-190800-
...CENTRAL COLORADO...

CITY           SKY/WX    TMP DP  RH WIND       PRES   REMARKS
ASPEN          LGT SNOW  31  30  96 NE3       30.08R FOG
BUENA VISTA    PTCLDY    30  22  73 S3        30.03R
COPPER MTN     CLOUDY    23  18  80 W17       30.10R WCI   9
BERTHOUD PASS  CLOUDY    14   7  73 MISG      30.10R
COTTONWOOD PAS PTCLDY    32  19  59 NW6       30.05R WCI  26
GUNNISON       CLOUDY    30  25  80 N5        30.08R WCI  25
KREMMLING      LGT SNOW  36  30  80 CALM      30.09R
LEADVILLE      PTCLDY    24  19  81 N17       30.07R WCI  11
MONARCH PASS   CLOUDY    19  18  93 MISG      30.18R
SALIDA         PTCLDY    34  25  69 W7        30.11R WCI  28
SUNLIGHT       SNOW     N/A N/A N/A NW3       30.16R VSB<1/4
WILKERSON PASS CLOUDY    19  16  86 N10G20    30.08R WCI   8
$$

COZ069>075-190800-
...SAN LUIS VALLEY/SANGRE DE CRISTO MOUNTAINS...

CITY           SKY/WX    TMP DP  RH WIND       PRES   REMARKS
ALAMOSA        CLOUDY    36  25  64 N8        30.01R
LA VETA PASS   MOCLDY    27  23  86 MISG      30.02R
SAGUACHE       CLOUDY    34  27  75 N8        30.03R WCI  27
$$

COZ035-036-038>040-190800-
...NORTHERN COLORADO FRONT RANGE...

CITY           SKY/WX    TMP DP  RH WIND       PRES   REMARKS
DENVER INTL AP CLOUDY    42  36  79 N25G33    30.01R
DMNS CITY PARK   N/A     43  34  69 N5G22     30.04R
AURORA         CLOUDY    41  35  80 N23G29    30.02R
FRONT RANGE AP CLOUDY    43  36  75 N21G28    30.01R
ERIE MUNI ARPT CLOUDY    43  38  80 N14G24    30.03R
BOULDER MUN AP CLOUDY    41  34  75 CALM      30.03R
CENTENNIAL     CLOUDY    39  33  79 N16       30.02R
BROOMFIELD     CLOUDY    41  34  75 N12       30.04R
FORT COLLINS   CLOUDY    45  34  65 N29G35    30.05R
LONGMONT       CLOUDY    46  37  69 N10       30.05R
$$

COZ041-046-047-076>085-087-088-190800-
...PIKES PEAK/PALMER DIVIDE AND SOUTHERN FOOTHILLS...

CITY           SKY/WX    TMP DP  RH WIND       PRES   REMARKS
COLO. SPRINGS  CLOUDY    41  32  70 NW24G30   29.98R
A. F. ACADEMY  CLOUDY    38  31  74 N20G28    29.98R
ELLICOTT       CLOUDY   N/A N/A N/A N24G33    29.94R
FALCON         FLURRIES  35  32  89 N17G26    29.98R WCI  25
FORT CARSON    MOCLDY    42  31  67 N24G32    29.95R
LIMON          RAIN      38  36  92 N28G39    29.93R FOG
MONUMENT HILL  LGT SNOW  32  32 100 NW17      29.99S WCI  21
TRINIDAD       CLOUDY    38  34  85 W13       29.97R
$$

COZ042>045-048>051-090-091-190800-
...NORTHEAST COLORADO...

CITY           SKY/WX    TMP DP  RH WIND       PRES   REMARKS
GREELEY ARPT   CLOUDY    43  34  70 N25G33    30.02R
AKRON          CLOUDY    43  42  97 N21       29.91S
BURLINGTON     LGT RAIN  45  41  86 N20       29.82S
WRAY           CLOUDY    49  44  84 N18G28    29.88R
STERLING       LGT RAIN  45  41  87 N15       29.94R
HOLYOKE        LGT RAIN  46  45  93 N15       29.90S
FORT MORGAN    CLOUDY    44  38  79 N29G36    29.96R
$$

COZ086-089-092>099-190800-
...SOUTHEAST COLORADO...

CITY           SKY/WX    TMP DP  RH WIND       PRES   REMARKS
PUEBLO         CLOUDY    46  35  65 NW10      29.95R
LA JUNTA       LGT RAIN  45  41  86 NW17      29.90R
LAMAR          LGT RAIN  44  42  93 W7        29.84F
SPRINGFIELD      N/A     41  38  89 NW15      29.86R
$$


USA.gov is the U.S. government's official web portal to all federal, state and local government web resources and services.